Regional Weather Roundup
Issued by NWS

Home | Current Version | Previous Version | Graphics & Text | Print | Product List | Glossary On
Versions: 1 2 3 4 5 6 7 8 9 10 11 12 13 14 15 16 17 18 19 20 21 22 23 24 25 26 27 28 29 30 31 32 33 34 35 36 37 38 39 40 41 42 43 44 45 46 47 48 49 50
000
ASUS43 KIND 180159
RWRIN

WEATHER ROUNDUP FOR INDIANA
NATIONAL WEATHER SERVICE INDIANAPOLIS IN
900 PM EST TUE JAN 17 2017

NOTE: "FAIR" INDICATES FEW OR NO CLOUDS BELOW 12,000 FEET WITH NO
SIGNIFICANT WEATHER AND/OR OBSTRUCTIONS TO VISIBILITY.

* - STATION DOES NOT REPORT WEATHER SUCH AS PRECIPITATION OR FOG.

+ - STATION NOT QUALITY CONTROLLED BY THE NATIONAL WEATHER SERVICE.
    USE DATA WITH CAUTION...ESPECIALLY DEWPOINT AND RELATIVE
    HUMIDITY OBSERVATIONS.

INZ001>003-010>013-019-020-180300-
NORTHWEST INDIANA

CITY           SKY/WX    TMP DP  RH WIND       PRES   REMARKS
GARY /AIRPORT/ CLOUDY    37  36  93 W12G24    30.00R FOG
MONTICELLO +   CLOUDY    37  35  95 W13       30.03R

$$

LMZ046-743>745-180300-
SOUTHERN LAKE MICHIGAN

STATION/POSITION TIME  TEMP    WIND        PRES    WAVE
                       AIR SEA DIR/SP/G            HT
                 (UTC) (F)     (DEG/KT/KT) (MB)    (FT)

$$

INZ004-005-014>016-021>024-180300-
NORTH CENTRAL INDIANA

CITY           SKY/WX    TMP DP  RH WIND       PRES   REMARKS
ELKHART        DRIZZLE   37  36  93 W9        29.96R
GOSHEN         CLOUDY    37  34  89 W15       29.96R FOG
PERU/GRISSOM   CLOUDY    37  37 100 W20       29.99R
SOUTH BEND     CLOUDY    35  35 100 W14       29.98R FOG     WCI  26

$$

INZ006>009-017-018-025>027-180300-
NORTHEAST INDIANA

CITY           SKY/WX    TMP DP  RH WIND       PRES   REMARKS
ANGOLA *+      CLOUDY    37  37 100 W12       29.93S
FORT WAYNE     CLOUDY    40  37  89 W17G25    29.97S
KENDALLVILLE + CLOUDY    37  37 100 W12G17    29.95R FOG

$$

INZ028-029-035-036-043>045-051>053-180300-
WEST CENTRAL INDIANA

CITY           SKY/WX    TMP DP  RH WIND       PRES   REMARKS
CRAWFORDSVL +  CLOUDY    37  37 100 W10       30.06R
LAFAYETTE      CLOUDY    37  36  96 W12       30.04S
TERRE HAUTE    CLOUDY    42  37  82 W10       30.08R

$$

INZ030>032-037>040-046>048-054>057-064-065-180300-
CENTRAL INDIANA

CITY           SKY/WX    TMP DP  RH WIND       PRES   REMARKS
COLUMBUS       CLOUDY    43  43 100 W8        30.05S
INDIANAPOLIS   DRIZZLE   42  41  96 W13       30.03S FOG
-EAGLE CREEK   CLOUDY    41  39  93 W18G24    30.02S
KOKOMO +       CLOUDY    39  38  96 W16       30.02R FOG
MT COMFORT *+  CLOUDY    41  41 100 W10       30.02F
SHELBYVILLE    LGT RAIN  44  41  89 W9        30.03R FOG

$$

INZ033-034-041-042-049-050-058-059-180300-
EAST CENTRAL INDIANA

CITY           SKY/WX    TMP DP  RH WIND       PRES   REMARKS
MUNCIE         CLOUDY    44  41  89 W14       30.00R FOG

$$

INZ060-061-067>069-081>083-085>088-180300-
SOUTHWEST INDIANA

CITY           SKY/WX    TMP DP  RH WIND       PRES   REMARKS
EVANSVILLE     CLOUDY    44  40  85 W9        30.14R
HUNTINGBURG *+ CLOUDY    43  39  87 W10       30.13R

$$

INZ062-063-066-070>080-084-089>092-180300-
SOUTH CENTRAL AND SOUTHEAST INDIANA

CITY           SKY/WX    TMP DP  RH WIND       PRES   REMARKS
BLOOMINGTON    LGT RAIN  43  40  89 W14       30.06R FOG
MADISON *+     CLOUDY    45  41  87 SW6       30.08R
SEYMOUR +      CLOUDY    46  43  87 W8        30.07R

$$





USA.gov is the U.S. government's official web portal to all federal, state and local government web resources and services.